| time (UTC) | temp F | wind direction | speed MPH | gust MPH | rain 1hr in | rain 24hr in | rain mn in | humidity % | barometer mb |
| 20260505220057 | 54 | 98 | 1.0 | 4.0 | 0.00 | 0.00 | 0.00 | 79 | 1027.6 |
| 20260505214559 | 54 | 84 | 0.0 | 3.0 | 0.00 | 0.00 | 0.00 | 79 | 1027.3 |
| 20260505213102 | 54 | 0 | 0.0 | 4.0 | 0.00 | 0.00 | 0.00 | 79 | 1027.3 |
| 20260505211611 | 54 | 107 | 0.0 | 6.0 | 0.00 | 0.00 | 0.00 | 79 | 1027.1 |
| 20260505204600 | 54 | 93 | 1.0 | 6.0 | 0.00 | 0.00 | 0.00 | 79 | 1026.8 |
| 20260505203058 | 55 | 98 | 1.0 | 8.0 | 0.00 | 0.00 | 0.00 | 79 | 1026.9 |
| 20260505201600 | 54 | 98 | 1.0 | 6.0 | 0.00 | 0.00 | 0.00 | 80 | 1026.8 |
| 20260505200055 | 53 | 0 | 1.0 | 4.0 | 0.00 | 0.00 | 0.00 | 79 | 1026.9 |
| 20260505194607 | 53 | 84 | 0.0 | 6.0 | 0.00 | 0.00 | 0.00 | 79 | 1026.8 |
| 20260505193054 | 53 | 88 | 0.0 | 4.0 | 0.00 | 0.00 | 0.00 | 79 | 1027.0 |
| 20260505191556 | 53 | 75 | 0.0 | 3.0 | 0.00 | 0.00 | 0.00 | 78 | 1026.9 |
| 20260505190100 | 53 | 88 | 0.0 | 3.0 | 0.00 | 0.00 | 0.00 | 77 | 1026.8 |
| 20260505184553 | 54 | 86 | 0.0 | 3.0 | 0.00 | 0.00 | 0.00 | 76 | 1026.7 |
| 20260505183053 | 54 | 0 | 1.0 | 4.0 | 0.00 | 0.00 | 0.00 | 75 | 1026.8 |
| 20260505181557 | 54 | 0 | 1.0 | 4.0 | 0.00 | 0.00 | 0.00 | 74 | 1026.8 |
| 20260505180058 | 55 | 83 | 1.0 | 6.0 | 0.00 | 0.00 | 0.00 | 73 | 1026.7 |
| 20260505174608 | 56 | 0 | 1.0 | 4.0 | 0.00 | 0.00 | 0.00 | 72 | 1026.5 |
| 20260505173105 | 56 | 74 | 1.0 | 5.0 | 0.00 | 0.00 | 0.00 | 71 | 1026.6 |
| 20260505171605 | 56 | 84 | 1.0 | 4.0 | 0.00 | 0.00 | 0.00 | 71 | 1026.5 |
| 20260505170059 | 57 | 65 | 1.0 | 6.0 | 0.00 | 0.00 | 0.00 | 71 | 1026.4 |
| 20260505164622 | 57 | 0 | 1.0 | 8.0 | 0.00 | 0.00 | 0.00 | 72 | 1026.4 |
| 20260505163107 | 56 | 123 | 1.0 | 6.0 | 0.00 | 0.00 | 0.00 | 73 | 1026.3 |
| 20260505161616 | 56 | 0 | 0.0 | 2.0 | 0.00 | 0.00 | 0.00 | 74 | 1026.1 |
| 20260505153109 | 57 | 104 | 0.0 | 3.0 | 0.00 | 0.00 | 0.00 | 75 | 1026.1 |
| 20260505151607 | 57 | 71 | 1.0 | 6.0 | 0.00 | 0.00 | 0.00 | 79 | 1026.0 |
| 20260505130109 | 56 | 0 | 0.0 | 0.0 | 0.00 | 0.00 | 0.00 | 80 | 1026.3 |
| 20260505124602 | 57 | 0 | 0.0 | 1.0 | 0.00 | 0.00 | 0.00 | 80 | 1026.1 |
| 20260505123053 | 57 | 0 | 0.0 | 0.0 | 0.00 | 0.00 | 0.00 | 80 | 1026.1 |
| 20260505121552 | 58 | 0 | 0.0 | 1.0 | 0.00 | 0.00 | 0.00 | 80 | 1026.1 |
| 20260505120107 | 58 | 0 | 0.0 | 2.0 | 0.00 | 0.00 | 0.00 | 79 | 1026.0 |
| 20260505114553 | 58 | 0 | 0.0 | 1.0 | 0.00 | 0.00 | 0.00 | 79 | 1025.9 |
| 20260505113107 | 58 | 0 | 0.0 | 0.0 | 0.00 | 0.00 | 0.00 | 79 | 1025.8 |
| 20260505111602 | 59 | 0 | 0.0 | 2.0 | 0.00 | 0.00 | 0.00 | 78 | 1025.8 |
| 20260505110106 | 59 | 0 | 0.0 | 0.0 | 0.00 | 0.00 | 0.00 | 79 | 1025.5 |
| 20260505101603 | 61 | 147 | 0.0 | 0.0 | 0.00 | 0.00 | 0.00 | 74 | 1025.2 |
| 20260505100059 | 62 | 0 | 0.0 | 0.0 | 0.00 | 0.00 | 0.00 | 73 | 1025.1 |
| 20260505094555 | 63 | 0 | 0.0 | 1.0 | 0.00 | 0.00 | 0.00 | 72 | 1025.0 |
| 20260505093107 | 64 | 0 | 0.0 | 2.0 | 0.00 | 0.00 | 0.00 | 71 | 1024.9 |
| 20260505091556 | 65 | 0 | 0.0 | 2.0 | 0.00 | 0.00 | 0.00 | 69 | 1024.9 |
| 20260505090056 | 65 | 0 | 0.0 | 2.0 | 0.00 | 0.00 | 0.00 | 67 | 1024.9 |
| 20260505084552 | 66 | 143 | 0.0 | 3.0 | 0.00 | 0.00 | 0.00 | 66 | 1024.8 |
| 20260505083103 | 67 | 255 | 0.0 | 4.0 | 0.00 | 0.00 | 0.00 | 67 | 1024.8 |
| 20260505080109 | 68 | 224 | 1.0 | 7.0 | 0.00 | 0.00 | 0.00 | 65 | 1024.7 |
| 20260505074557 | 69 | 236 | 0.0 | 5.0 | 0.00 | 0.00 | 0.00 | 63 | 1024.6 |
| 20260505073058 | 69 | 275 | 1.0 | 6.0 | 0.00 | 0.00 | 0.00 | 62 | 1024.6 |
| 20260505071617 | 69 | 253 | 1.0 | 5.0 | 0.00 | 0.00 | 0.00 | 60 | 1024.7 |
| 20260505070056 | 70 | 233 | 2.0 | 7.0 | 0.00 | 0.00 | 0.00 | 61 | 1024.6 |
| 20260505064556 | 71 | 286 | 3.0 | 8.0 | 0.00 | 0.00 | 0.00 | 59 | 1024.5 |
| 20260505063054 | 71 | 0 | 1.0 | 8.0 | 0.00 | 0.00 | 0.00 | 57 | 1024.5 |
| 20260505061557 | 72 | 0 | 1.0 | 6.0 | 0.00 | 0.00 | 0.00 | 57 | 1024.4 |
| 20260505060055 | 72 | 224 | 1.0 | 8.0 | 0.00 | 0.00 | 0.00 | 56 | 1024.5 |
| 20260505054557 | 72 | 254 | 2.0 | 6.0 | 0.00 | 0.00 | 0.00 | 56 | 1024.5 |
| 20260505053105 | 72 | 256 | 1.0 | 4.0 | 0.00 | 0.00 | 0.00 | 55 | 1024.4 |
| 20260505051552 | 71 | 46 | 0.0 | 3.0 | 0.00 | 0.00 | 0.00 | 53 | 1024.7 |
| 20260505041554 | 70 | 282 | 0.0 | 4.0 | 0.00 | 0.00 | 0.00 | 54 | 1025.5 |
| 20260505040055 | 70 | 0 | 0.0 | 3.0 | 0.00 | 0.00 | 0.00 | 55 | 1025.6 |
| 20260505034554 | 69 | 0 | 0.0 | 2.0 | 0.00 | 0.00 | 0.00 | 57 | 1025.9 |
| 20260505033110 | 67 | 0 | 1.0 | 3.0 | 0.00 | 0.00 | 0.00 | 59 | 1026.1 |
| 20260505031552 | 66 | 0 | 0.0 | 3.0 | 0.00 | 0.00 | 0.00 | 61 | 1026.2 |
| 20260505030058 | 66 | 29 | 0.0 | 3.0 | 0.00 | 0.00 | 0.00 | 63 | 1026.3 |
| 20260505024555 | 65 | 0 | 0.0 | 3.0 | 0.00 | 0.00 | 0.00 | 65 | 1026.4 |
| 20260505023057 | 64 | 0 | 0.0 | 2.0 | 0.00 | 0.00 | 0.00 | 66 | 1026.4 |
| 20260505021552 | 63 | 0 | 0.0 | 2.0 | 0.00 | 0.00 | 0.00 | 68 | 1026.4 |
| 20260505020056 | 62 | 0 | 0.0 | 3.0 | 0.00 | 0.00 | 0.00 | 69 | 1026.5 |
| 20260505014555 | 62 | 0 | 0.0 | 2.0 | 0.00 | 0.00 | 0.00 | 70 | 1026.5 |
| 20260505013053 | 61 | 0 | 0.0 | 1.0 | 0.00 | 0.00 | 0.00 | 72 | 1026.5 |
| 20260505011557 | 60 | 0 | 0.0 | 2.0 | 0.00 | 0.00 | 0.00 | 73 | 1026.5 |
| 20260505010058 | 59 | 55 | 0.0 | 4.0 | 0.00 | 0.00 | 0.00 | 75 | 1026.5 |
| 20260505004553 | 58 | 0 | 0.0 | 2.0 | 0.00 | 0.00 | 0.00 | 77 | 1026.6 |
| 20260505003059 | 56 | 355 | 0.0 | 3.0 | 0.00 | 0.00 | 0.00 | 80 | 1026.6 |
| 20260505001553 | 55 | 0 | 0.0 | 2.0 | 0.00 | 0.00 | 0.00 | 83 | 1026.4 |
| 20260505000111 | 54 | 0 | 0.0 | 1.0 | 0.00 | 0.00 | 0.00 | 86 | 1026.3 |
| 20260504234555 | 51 | 68 | 0.0 | 1.0 | 0.00 | 0.00 | 0.00 | 88 | 1026.0 |
| 20260504233054 | 50 | 0 | 0.0 | 1.0 | 0.00 | 0.00 | 0.00 | 89 | 1025.7 |
| 20260504231555 | 48 | 0 | 0.0 | 0.0 | 0.00 | 0.00 | 0.00 | 89 | 1025.6 |
| 20260504230056 | 49 | 0 | 0.0 | 0.0 | 0.00 | 0.00 | 0.00 | 88 | 1025.4 |
| 20260504224559 | 49 | 0 | 0.0 | 0.0 | 0.00 | 0.00 | 0.00 | 87 | 1025.2 |
| 20260504223109 | 50 | 0 | 0.0 | 0.0 | 0.00 | 0.00 | 0.00 | 87 | 1025.0 |
| 20260504221558 | 51 | 0 | 0.0 | 1.0 | 0.00 | 0.00 | 0.00 | 86 | 1025.0 |